Tracking 23114 objects as of 16-May-2021
HD Live streaming from Space Station
objects crossing your sky now

DELTA 2 R/B(1)

Track DELTA 2 R/B(1) now!
10-day predictions


NORAD ID: 24809
Int'l Code: 1997-025B
Perigee: 652.4 km
Apogee: 1,654.8 km
Inclination: 26.3 °
Period: 108.3 minutes
Semi major axis: 7524 km
RCS: 10.0934 m2 (large)
Launch date: May 20, 1997
Source: United States (US)
Launch site: AIR FORCE EASTERN TEST RANGE (AFETR)

Note: This is a ROCKET BODY
aabbcc
Your satellite tracking list
Your tracking list is empty




NASA's NSSDC Master Catalog

Two Line Element Set (TLE):
1 24809U 97025B   21135.90146077  .00000093  00000-0 -14560-4 0  9995
2 24809  26.2975 350.6409 0666047 355.9150   3.6121 13.30074400166323
Source of the keplerian elements: AFSPC